Hattiesburg, MS

8:48 PM CDT on April 30, 2017 (GMT -0500)
USM School of Polymers | | Change Station

Elev 233 ft 31.33 °N, 89.34 °W | Updated 4 minutes ago

Rain
Rain
68.9 °F
Feels Like 68.9 °F
N
5.0
Wind Variable Wind from SSE
Gusts 9.0 mph

Today
High -- | Low -- °F
--% Chance of Precip.
Yesterday
High -- | Low -- °F
Precip. -- in
Pressure 29.85 in
Visibility 10.0 miles
Clouds Few 600 ft
Mostly Cloudy 2300 ft
Overcast 2900 ft
Dew Point 68 °F
Humidity 96%
Rainfall 3.34 in
Snow Depth Not available.
6:13 AM 7:36 PM
Waxing Crescent, 28% visible
SPECI KHBG 010143Z AUTO 16006KT 10SM VCTS -RA FEW006 BKN023 OVC029 21/19 A2985 RMK AO2 LTG DSNT N AND NE TSB07E37 P0032 T02060194
Pressure 29.85 in
Visibility 10.0 miles
Clouds Few 600 ft
Mostly Cloudy 2300 ft
Overcast 2900 ft
Dew Point 68 °F
Humidity 96%
Rainfall 3.34 in
Snow Depth Not available.
6:13 AM 7:36 PM
Waxing Crescent, 28% visible
SPECI KHBG 010143Z AUTO 16006KT 10SM VCTS -RA FEW006 BKN023 OVC029 21/19 A2985 RMK AO2 LTG DSNT N AND NE TSB07E37 P0032 T02060194

Get Severe Weather Alerts

Thanks for signing up!

Be on the lookout for a verification email in your inbox.

You'll start receiving the daily forecast at 8 AM.

×

10-Day Weather Forecast

Almanac

Astronomy

Apr. 30, 2017 Rise Set
Actual Time
Civil Twilight
Nautical Twilight
Astronomical Twilight
Moon
Length of Visible Light
Length of Day
Tomorrow will be .
, % of the Moon is Illuminated

Today's Extremes

State Highs State Lows

Community

WunderPhotos

WunderBlog® & News

Nearby

Air Quality

  Air Quality AQ Index Pollutant
Not available.

Snow Depth

Station Depth Elevation

Earthquake Activity

City Distance Mag. Time & Date
Minimum magnitude displayed is 2.5.

Coastal Water Temperatures

Place Temperature

Stations

Nearby Weather Stations

Station Location Temp. Windchill Dew Point Humidity Wind Precip. Elev Updated Type
                   

Watches & Warnings

There are currently no watches in effect.